CW5456 Weather Reports


time (UTC)temp
F
wind
direction
speed
knots
gust
knots
rain 1hr
in
rain 24hr
in
rain mn
in
humidity
%
barometer
mb
20260507072553 53 294 0.0 0.9 0.00 0.00 0.00 92 1018.6
20260507072052 53 294 0.0 0.0 0.00 0.00 0.00 92 1018.6
20260507071052 53 294 0.0 0.0 0.00 0.00 0.00 93 1018.5
20260507070552 53 294 0.0 0.0 0.00 0.00 0.00 92 1018.5
20260507070052 53 294 0.0 0.0 0.00 0.00 0.00 92 1018.4
20260507065052 53 294 0.0 0.0 0.00 0.00 0.00 92 1018.4
20260507064552 53 294 0.0 0.9 0.00 0.00 0.00 92 1018.5
20260507064052 53 294 0.0 0.9 0.00 0.00 0.00 92 1018.5
20260507063553 53 294 0.0 0.0 0.00 0.00 0.00 92 1018.4
20260507063052 53 294 0.0 0.0 0.00 0.00 0.00 92 1018.4
20260507062051 53 294 0.0 0.0 0.00 0.00 0.00 92 1018.4
20260507061552 53 294 0.0 0.0 0.00 0.00 0.00 92 1018.4
20260507061052 53 294 0.0 0.0 0.00 0.00 0.00 92 1018.5
20260507060552 53 294 0.0 0.0 0.00 0.00 0.00 92 1018.5
20260507055552 53 294 0.0 0.0 0.00 0.00 0.00 92 1018.5
20260507055051 53 294 0.0 0.0 0.00 0.00 0.00 91 1018.6
20260507054551 53 294 0.0 0.0 0.00 0.00 0.00 91 1018.6
20260507054051 53 294 0.0 0.0 0.00 0.00 0.00 91 1018.6
20260507053553 53 294 0.0 0.0 0.00 0.00 0.00 91 1018.6
20260507053051 53 294 0.0 0.0 0.00 0.00 0.00 91 1018.5
20260507052051 53 294 0.0 0.0 0.00 0.00 0.00 91 1018.7
20260507051051 53 294 0.0 0.0 0.00 0.00 0.00 91 1018.7
20260507050551 53 294 0.0 0.0 0.00 0.00 0.00 91 1018.7
20260507050051 53 294 0.0 0.0 0.00 0.00 0.00 91 1018.7
20260507045551 53 294 0.0 0.0 0.00 0.00 0.00 91 1018.7
20260507045051 53 294 0.0 0.0 0.00 0.00 0.00 92 1018.7
20260507044050 53 294 0.0 0.0 0.00 0.00 0.00 92 1018.7
20260507043550 53 294 0.0 0.0 0.00 0.00 0.00 92 1018.7
20260507043051 53 294 0.0 0.0 0.00 0.00 0.00 92 1018.7
20260507042550 53 294 0.0 0.0 0.00 0.00 0.00 92 1018.7
20260507042050 53 294 0.0 0.0 0.00 0.00 0.00 92 1018.7
20260507041550 53 294 0.0 0.0 0.00 0.00 0.00 91 1018.6
20260507041050 53 294 0.0 0.0 0.00 0.00 0.00 91 1018.6
20260507040550 53 294 0.0 0.0 0.00 0.00 0.00 91 1018.6
20260507040050 53 294 0.0 0.0 0.00 0.00 0.00 91 1018.6
20260507035550 53 294 0.0 0.9 0.00 0.00 0.00 91 1018.6
20260507035049 53 294 0.0 0.9 0.00 0.00 0.00 91 1018.5
20260507034050 53 294 0.0 0.0 0.00 0.00 0.00 92 1018.4
20260507033549 53 294 0.0 0.0 0.00 0.00 0.00 92 1018.3
20260507033050 53 294 0.0 0.0 0.00 0.00 0.00 92 1018.3
20260507032549 53 294 0.0 0.0 0.00 0.00 0.00 92 1018.3
20260507032049 53 294 0.0 2.6 0.00 0.00 0.00 91 1018.3
20260507031549 53 294 0.0 2.6 0.00 0.00 0.00 91 1018.3
20260507031049 53 294 1.7 2.6 0.00 0.00 0.00 91 1018.3
20260507030549 53 294 0.0 2.6 0.00 0.00 0.00 91 1018.3
20260507030049 54 294 0.0 0.9 0.00 0.00 0.00 91 1018.3
20260507025049 54 294 0.0 4.3 0.00 0.00 0.00 91 1018.3
20260507024049 54 294 2.6 2.6 0.00 0.00 0.00 91 1018.3
20260507023548 54 294 0.0 0.0 0.00 0.00 0.00 91 1018.3
20260507022548 54 294 0.0 0.0 0.00 0.00 0.00 91 1018.2
20260507022049 54 294 0.0 0.0 0.00 0.00 0.00 91 1018.3
20260507021549 54 294 0.0 0.0 0.00 0.00 0.00 91 1018.3
20260507021048 54 294 0.0 0.9 0.00 0.00 0.00 91 1018.3
20260507020548 54 294 0.0 0.9 0.00 0.00 0.00 91 1018.2
20260507020048 54 294 0.0 0.9 0.00 0.00 0.00 91 1018.3
20260507015048 54 294 0.0 0.0 0.00 0.00 0.00 91 1018.1
20260507014548 54 294 0.0 0.0 0.00 0.00 0.00 91 1018.1
20260507014048 54 294 0.0 0.0 0.00 0.00 0.00 91 1018.1
20260507012549 54 294 0.0 0.0 0.00 0.00 0.00 91 1018.2
20260507012047 54 294 0.0 0.0 0.00 0.00 0.00 92 1018.1
20260507011547 54 294 0.0 0.0 0.00 0.00 0.00 92 1018.1
20260507010547 54 294 0.0 0.0 0.00 0.00 0.00 92 1018.2
20260507010047 54 294 0.0 0.9 0.00 0.00 0.00 92 1018.3
20260507005047 54 294 0.0 0.9 0.00 0.00 0.00 93 1018.3
20260507004547 54 294 0.0 1.7 0.00 0.00 0.00 93 1018.3
20260507003547 54 294 0.0 3.5 0.00 0.00 0.00 93 1018.3
20260507003047 53 294 1.7 3.5 0.00 0.00 0.00 93 1018.2
20260507002548 53 294 1.7 3.5 0.00 0.00 0.00 93 1018.3
20260507002048 53 294 0.9 3.5 0.00 0.00 0.00 93 1018.3
20260507001547 54 294 2.6 3.5 0.00 0.00 0.00 94 1018.3
20260507001046 53 294 0.0 1.7 0.00 0.00 0.00 94 1018.2
20260507000547 53 294 0.0 1.7 0.00 0.00 0.00 94 1018.2
20260507000047 53 294 0.0 1.7 0.00 0.00 0.00 94 1018.2
20260506235546 53 294 0.0 2.6 0.00 0.00 0.00 94 1018.2
20260506235047 53 294 0.0 2.6 0.00 0.00 0.00 95 1018.2
20260506234547 53 294 1.7 2.6 0.00 0.00 0.00 95 1018.3
20260506234046 53 294 1.7 3.5 0.00 0.00 0.00 95 1018.3
20260506233546 53 294 2.6 3.5 0.00 0.00 0.00 95 1018.3
20260506233046 53 294 2.6 3.5 0.00 0.00 0.00 95 1018.3
20260506232546 52 294 1.7 4.3 0.00 0.00 0.00 95 1018.3
20260506232046 52 294 2.6 4.3 0.00 0.00 0.00 95 1018.4
20260506231046 52 294 3.5 7.0 0.00 0.00 0.00 95 1018.4
20260506230546 52 294 4.3 7.0 0.00 0.00 0.00 95 1018.5
20260506230046 53 294 4.3 6.1 0.00 0.00 0.00 95 1018.4
20260506225546 53 294 4.3 6.1 0.00 0.00 0.00 95 1018.4
20260506225045 53 294 3.5 4.3 0.00 0.00 0.00 95 1018.3
20260506224546 53 294 2.6 4.3 0.00 0.00 0.00 95 1018.4
20260506224046 52 294 3.5 6.1 0.00 0.00 0.00 95 1018.4
20260506223045 52 294 4.3 7.8 0.00 0.00 0.00 95 1018.5
20260506222546 52 294 7.0 7.8 0.00 0.00 0.00 95 1018.5
20260506222045 52 290 6.1 7.8 0.00 0.00 0.00 95 1018.5
20260506221545 52 291 6.1 7.8 0.00 0.00 0.00 94 1018.6
20260506220545 52 287 6.1 7.8 0.00 0.00 0.00 94 1018.5
20260506220045 52 285 7.0 7.8 0.00 0.00 0.00 94 1018.6
20260506215545 52 279 6.1 7.8 0.00 0.00 0.00 94 1018.6
20260506215045 52 283 7.0 8.7 0.00 0.00 0.00 94 1018.6
20260506214545 52 287 6.1 8.7 0.00 0.00 0.00 93 1018.6
20260506214045 52 300 7.8 9.6 0.00 0.00 0.00 93 1018.7
20260506213045 52 298 8.7 8.7 0.00 0.00 0.00 93 1018.7
20260506212545 52 329 4.3 7.8 0.00 0.00 0.00 93 1018.6
20260506212045 53 340 4.3 7.0 0.00 0.00 0.00 93 1018.6
20260506211545 53 330 5.2 7.0 0.00 0.00 0.00 92 1018.5
20260506210544 53 326 7.0 7.8 0.00 0.00 0.00 91 1018.5
20260506210045 53 249 7.0 7.8 0.00 0.00 0.00 90 1018.5
20260506205545 54 242 1.7 7.0 0.00 0.00 0.00 90 1018.5
20260506205044 54 242 2.6 7.0 0.00 0.00 0.00 89 1018.5
20260506204544 54 242 1.7 7.0 0.00 0.00 0.00 88 1018.7
20260506204044 55 238 4.3 7.0 0.00 0.00 0.00 87 1018.5
20260506203544 56 227 5.2 7.0 0.00 0.00 0.00 86 1018.4
20260506202544 57 165 0.0 4.3 0.00 0.00 0.00 86 1018.4
20260506202045 56 164 0.0 4.3 0.00 0.00 0.00 85 1018.4
20260506201544 57 169 0.0 5.2 0.00 0.00 0.00 85 1018.3
20260506201044 57 169 0.0 5.2 0.00 0.00 0.00 85 1018.2
20260506200544 57 156 5.2 6.1 0.00 0.00 0.00 86 1018.2
20260506200044 56 154 0.0 6.1 0.00 0.00 0.00 86 1018.2
20260506195543 57 158 0.0 7.0 0.00 0.00 0.00 86 1018.2
20260506195043 56 156 1.7 7.0 0.00 0.00 0.00 85 1018.2
20260506194544 56 136 0.0 7.0 0.00 0.00 0.00 85 1018.2
20260506194043 56 132 4.3 4.3 0.00 0.00 0.00 85 1018.2
20260506193543 56 131 1.7 7.0 0.00 0.00 0.00 86 1018.2
20260506192543 56 111 0.9 10.4 0.00 0.00 0.00 85 1018.1
20260506192043 56 123 3.5 10.4 0.00 0.00 0.00 85 1018.0
20260506191543 56 136 1.7 10.4 0.00 0.00 0.00 84 1017.9
20260506191043 56 135 8.7 10.4 0.00 0.00 0.00 84 1018.0
20260506190542 57 118 6.1 12.2 0.00 0.00 0.00 84 1017.9
20260506190043 57 144 4.3 12.2 0.00 0.00 0.00 84 1017.9
20260506185543 57 106 8.7 12.2 0.00 0.00 0.00 84 1017.8
20260506185043 57 125 4.3 12.2 0.00 0.00 0.00 84 1017.8
20260506184543 57 164 2.6 9.6 0.00 0.00 0.00 85 1017.8
20260506184042 57 137 0.0 7.8 0.00 0.00 0.00 85 1017.8
20260506183543 56 115 1.7 7.0 0.00 0.00 0.00 86 1017.7
20260506183043 56 135 2.6 8.7 0.00 0.00 0.00 87 1017.8
20260506182543 56 136 3.5 10.4 0.00 0.00 0.00 87 1017.8
20260506182042 56 128 4.3 11.3 0.00 0.00 0.00 87 1017.8
20260506181542 56 117 7.8 11.3 0.00 0.00 0.00 87 1017.7
20260506181042 56 128 1.7 8.7 0.00 0.00 0.00 88 1017.8
20260506180542 56 138 0.9 4.3 0.00 0.00 0.00 88 1017.7
20260506180042 56 136 0.0 2.6 0.00 0.00 0.00 89 1017.8
20260506175542 56 137 0.0 7.0 0.00 0.00 0.00 88 1017.7
20260506175042 56 137 0.9 7.0 0.00 0.00 0.00 88 1017.7
20260506174541 56 139 0.0 3.5 0.00 0.00 0.00 88 1017.7
20260506174041 56 139 2.6 6.1 0.00 0.00 0.00 88 1017.7
20260506173541 56 139 0.0 6.1 0.00 0.00 0.00 88 1017.6
20260506173041 56 138 3.5 8.7 0.00 0.00 0.00 87 1017.5
20260506172541 56 132 3.5 8.7 0.00 0.00 0.00 87 1017.3
20260506171541 56 131 5.2 10.4 0.00 0.00 0.00 87 1017.2
20260506170541 56 123 1.7 8.7 0.00 0.00 0.00 87 1017.3
20260506170042 56 123 6.1 9.6 0.00 0.00 0.00 88 1017.4
20260506165542 56 138 7.8 9.6 0.00 0.00 0.00 89 1017.5
20260506165041 56 129 3.5 4.3 0.00 0.00 0.00 89 1017.5
20260506164541 56 132 1.7 4.3 0.00 0.00 0.00 89 1017.4
20260506164041 55 131 0.9 3.5 0.00 0.00 0.00 90 1017.4
20260506163541 55 132 0.0 3.5 0.00 0.00 0.00 90 1017.4
20260506163041 55 131 0.0 4.3 0.00 0.00 0.00 90 1017.4
20260506162541 55 131 0.0 4.3 0.00 0.00 0.00 90 1017.5
20260506162041 55 132 0.9 7.0 0.00 0.00 0.00 90 1017.7
20260506161541 55 132 0.0 7.0 0.00 0.00 0.00 90 1017.6
20260506160540 55 129 3.5 7.8 0.00 0.00 0.00 90 1017.4
20260506160040 54 141 1.7 7.0 0.00 0.00 0.00 91 1017.4
20260506155040 54 140 0.0 11.3 0.00 0.00 0.00 91 1017.3
20260506154540 54 123 0.0 12.2 0.00 0.00 0.00 91 1017.2
20260506154040 54 115 9.6 12.2 0.00 0.00 0.00 91 1016.9
20260506153040 54 119 0.9 6.1 0.00 0.00 0.00 91 1016.9
20260506152539 54 120 2.6 9.6 0.00 0.00 0.00 91 1016.9
20260506152040 54 125 6.1 9.6 0.00 0.00 0.00 92 1016.9
20260506151540 54 115 7.8 7.8 0.00 0.00 0.00 92 1016.8
20260506151040 54 117 6.1 8.7 0.00 0.00 0.00 92 1016.8
20260506150540 54 131 4.3 8.7 0.00 0.00 0.00 92 1016.9
20260506150040 54 120 0.0 7.8 0.00 0.00 0.00 92 1017.0
20260506145540 54 120 0.9 8.7 0.00 0.00 0.00 92 1017.0
20260506145040 54 124 6.1 8.7 0.00 0.00 0.00 92 1017.0
20260506144539 54 123 6.1 7.8 0.00 0.00 0.00 92 1017.1
20260506143540 54 131 3.5 9.6 0.00 0.00 0.00 93 1017.0
20260506143040 53 133 0.9 9.6 0.00 0.00 0.00 93 1016.8
20260506142540 53 111 3.5 7.8 0.00 0.00 0.00 93 1016.6
20260506142040 53 115 1.7 7.8 0.00 0.00 0.00 93 1016.6
20260506141039 53 124 6.1 8.7 0.00 0.00 0.00 94 1016.8
20260506140039 53 121 3.5 7.8 0.00 0.00 0.00 94 1016.7
20260506135539 53 117 7.0 8.7 0.00 0.00 0.00 94 1016.7
20260506134539 52 105 2.6 8.7 0.00 0.00 0.00 95 1016.6
20260506134039 52 121 0.9 7.8 0.00 0.00 0.00 95 1016.5
20260506133538 52 142 4.3 7.0 0.00 0.00 0.00 95 1016.6
20260506132540 52 111 3.5 8.7 0.00 0.00 0.00 96 1016.6
20260506132038 52 120 4.3 8.7 0.00 0.00 0.00 96 1016.7
20260506131539 51 298 1.7 3.5 0.00 0.00 0.00 96 1016.7
20260506131038 51 298 0.0 2.6 0.00 0.00 0.00 95 1016.7
20260506125538 51 304 0.0 0.0 0.00 0.00 0.00 95 1016.6
20260506125038 51 304 0.0 0.0 0.00 0.00 0.00 95 1016.6
20260506124538 51 304 0.0 0.0 0.00 0.00 0.00 95 1016.4
20260506124037 51 304 0.0 0.9 0.00 0.00 0.00 95 1016.3
20260506123538 51 304 0.0 0.9 0.00 0.00 0.00 95 1016.4
20260506123039 51 304 0.0 0.9 0.00 0.00 0.00 95 1016.3
20260506122538 51 304 0.0 0.0 0.00 0.00 0.00 95 1016.2
20260506121037 51 304 0.0 0.0 0.00 0.00 0.00 95 1016.4
20260506120537 51 304 0.0 0.0 0.00 0.00 0.00 95 1016.3
20260506120037 51 304 0.0 0.0 0.00 0.00 0.00 95 1016.3
20260506115537 51 304 0.0 0.0 0.00 0.00 0.00 95 1016.3
20260506115037 51 304 0.0 0.0 0.00 0.00 0.00 95 1016.2
20260506114537 51 304 0.0 0.0 0.00 0.00 0.00 95 1016.2
20260506114037 51 304 0.0 0.0 0.00 0.00 0.00 95 1016.2
20260506113537 51 304 0.0 0.0 0.00 0.00 0.00 95 1016.1
20260506112537 51 304 0.0 0.0 0.00 0.00 0.00 95 1016.0
20260506112037 51 304 0.0 1.7 0.00 0.00 0.00 95 1016.0
20260506111537 51 304 0.0 1.7 0.00 0.00 0.00 95 1015.9
20260506110537 51 304 0.0 0.9 0.00 0.00 0.00 95 1015.9
20260506110036 51 304 0.0 0.0 0.00 0.00 0.00 95 1015.7
20260506105037 51 304 0.0 2.6 0.00 0.00 0.00 95 1015.6
20260506104536 51 304 0.0 2.6 0.00 0.00 0.00 95 1015.5
20260506104037 51 304 2.6 2.6 0.00 0.00 0.00 95 1015.4
20260506103536 51 304 1.7 1.7 0.00 0.00 0.00 95 1015.4
20260506103036 51 304 0.0 0.0 0.00 0.00 0.00 95 1015.5
20260506102536 51 304 0.0 0.0 0.00 0.00 0.00 95 1015.5
20260506102036 51 304 0.0 0.0 0.00 0.00 0.00 95 1015.4
20260506101536 51 304 0.0 0.9 0.00 0.00 0.00 95 1015.4
20260506100536 51 304 0.9 3.5 0.00 0.00 0.00 95 1015.3
20260506100036 51 304 0.9 3.5 0.00 0.00 0.00 95 1015.4
20260506095536 51 304 2.6 3.5 0.00 0.00 0.00 95 1015.3
20260506095035 51 304 2.6 3.5 0.00 0.00 0.00 95 1015.3
20260506094536 50 304 0.9 1.7 0.00 0.00 0.00 95 1015.3
20260506094035 50 304 0.0 2.6 0.00 0.00 0.00 95 1015.3
20260506093535 50 304 1.7 3.5 0.00 0.00 0.00 95 1015.2
20260506093035 50 304 1.7 3.5 0.00 0.00 0.00 95 1015.1
20260506092035 50 304 2.6 4.3 0.00 0.00 0.00 94 1015.1
20260506091535 51 304 2.6 4.3 0.00 0.00 0.00 95 1015.1
20260506090535 51 304 0.9 4.3 0.00 0.00 0.00 95 1015.1
20260506090035 51 304 2.6 4.3 0.00 0.00 0.00 95 1015.2
20260506085035 51 304 0.9 4.3 0.00 0.00 0.00 94 1015.1
20260506084535 51 304 3.5 4.3 0.00 0.00 0.00 94 1015.0
20260506084035 51 304 2.6 3.5 0.00 0.00 0.00 95 1015.0
20260506083535 50 304 0.9 3.5 0.00 0.00 0.00 94 1014.9
20260506083034 50 304 1.7 2.6 0.00 0.00 0.00 94 1014.9
20260506082035 50 304 0.0 2.6 0.00 0.00 0.00 94 1014.9
20260506081535 50 304 0.0 2.6 0.00 0.00 0.00 93 1014.7
20260506081034 50 304 0.0 0.0 0.00 0.00 0.00 93 1014.8
20260506080535 50 304 0.0 0.0 0.00 0.00 0.00 93 1014.6
20260506073034 51 305 0.0 2.6 0.00 0.00 0.00 93 1014.4